Regional Weather Roundup
Issued by NWS

Current Version | Previous Version | Text Only | Print | Product List | Glossary On
Versions: 1 2 3 4 5 6 7 8 9 10 11 12 13 14 15 16 17 18 19 20 21 22 23 24 25 26 27 28 29 30 31 32 33 34 35 36 37 38 39 40 41 42 43 44 45 46 47 48 49 50
000
ASUS44 KOUN 231710
RWROK

WEATHER ROUNDUP FOR OKLAHOMA
NATIONAL WEATHER SERVICE NORMAN OK
1200 PM CDT THU OCT 23 2014

NOTE: "FAIR" INDICATES FEW OR NO CLOUDS BELOW 12,000 FEET WITH NO
      SIGNIFICANT WEATHER AND/OR OBSTRUCTIONS TO VISIBILITY.

OKZ001>007-009>012-014-015-017-231800-
NORTHWEST OKLAHOMA AND THE PANHANDLE

CITY           SKY/WX    TMP DP  RH WIND       PRES   REMARKS
GAGE           MOSUNNY   71  61  70 S7        30.12S
ENID/WOODRING  PTSUNNY   72  61  68 S10       30.11S
$$

OKZ016-021>023-033>039-044-045-231800-
SOUTHWEST OKLAHOMA

CITY           SKY/WX    TMP DP  RH WIND       PRES   REMARKS
LAWTON/REGL    SUNNY     74  60  61 S10       30.13F
LAWTON/FT SILL SUNNY     73  60  64 S10       30.12S
FREDERICK      SUNNY     73  61  65 S8        30.10F
CLINTON        MOSUNNY   69  60  73 S9        30.14S
HOBART         SUNNY     71  60  68 SW14      30.13S
ALTUS AFB      SUNNY     73  61  66 SW8       30.13S
$$

OKZ018>020-024>031-231800-
CENTRAL OKLAHOMA

CITY           SKY/WX    TMP DP  RH WIND       PRES   REMARKS
OKLAHOMA CITY  MOSUNNY   71  57  61 S13       30.13S
OKC/WILEY POST SUNNY     71  58  63 SW13      30.13R
OKC/TINKER AFB SUNNY     71  57  61 S13       30.13S
STILLWATER     CLOUDY    67  57  70 S12       30.14S
GUTHRIE        SUNNY     71  58  63 S8        30.13S
$$

OKZ008-013-054>072-231800-
NORTHEAST OKLAHOMA

CITY           SKY/WX    TMP DP  RH WIND       PRES   REMARKS
TULSA          CLOUDY    60  58  92 S10       30.16S
TULSA/JONES    CLOUDY    59  57  93 S8        30.17F
PONCA CITY     SUNNY     69  58  67 S9        30.12F
BARTLESVILLE   CLOUDY    63  58  83 S8        30.17R
MUSKOGEE       CLOUDY    57  53  86 SE5       30.21S
$$

OKZ032-040>043-046>053-073>077-231800-
SOUTH CENTRAL/SOUTHEAST OKLAHOMA

CITY           SKY/WX    TMP DP  RH WIND       PRES   REMARKS
ARDMORE/DWNTWN SUNNY     68  57  68 S7        30.15F
MCALESTER      LGT RAIN  60  53  77 S3        30.19S
$$




USA.gov is the U.S. government's official web portal to all federal, state and local government web resources and services.